TimePDT,TemperatureF,Dew PointF,Humidity,Sea Level PressureIn,VisibilityMPH,Wind Direction,Wind SpeedMPH,Gust SpeedMPH,PrecipitationIn,Events,Conditions,WindDirDegrees,DateUTC
1:53 AM,86.0,75.9,72,29.82,10.0,East,8.1,-,N/A,,Clear,100,2013-07-10 08:53:00
2:53 AM,84.9,75.9,74,29.86,10.0,SE,21.9,29.9,N/A,,Clear,140,2013-07-10 09:53:00
3:53 AM,84.9,75.0,72,29.86,10.0,SSE,25.3,31.1,N/A,,Clear,150,2013-07-10 10:53:00
4:53 AM,84.9,73.0,67,29.84,10.0,SSE,13.8,-,N/A,,Clear,150,2013-07-10 11:53:00
5:53 AM,84.0,73.9,72,29.87,10.0,ESE,9.2,-,N/A,,Clear,110,2013-07-10 12:53:00
6:53 AM,84.0,73.9,72,29.87,10.0,ESE,9.2,-,N/A,,Clear,120,2013-07-10 13:53:00
7:53 AM,84.9,73.9,69,29.88,10.0,ENE,5.8,-,N/A,,Clear,70,2013-07-10 14:53:00
8:53 AM,86.0,75.0,70,29.89,10.0,East,3.5,-,N/A,,Clear,100,2013-07-10 15:53:00
9:53 AM,88.0,75.0,65,29.89,10.0,Calm,Calm,-,N/A,,Clear,0,2013-07-10 16:53:00
10:53 AM,90.0,73.9,59,29.88,10.0,Variable,3.5,-,N/A,,Clear,0,2013-07-10 17:53:00
11:53 AM,93.0,75.0,56,29.87,10.0,Variable,6.9,-,N/A,,Clear,0,2013-07-10 18:53:00
12:53 PM,95.0,73.9,50,29.86,10.0,ESE,6.9,-,N/A,,Clear,120,2013-07-10 19:53:00
1:53 PM,95.0,73.9,50,29.83,10.0,ESE,13.8,-,N/A,,Clear,120,2013-07-10 20:53:00
2:53 PM,95.0,73.0,49,29.81,10.0,SSW,8.1,-,N/A,,Clear,210,2013-07-10 21:53:00
3:14 PM,96.8,73.4,47,29.80,2.5,SSW,8.1,-,N/A,,Haze,200,2013-07-10 22:14:00
3:28 PM,96.8,73.4,47,29.79,10.0,SSW,4.6,-,N/A,,Partly Cloudy,200,2013-07-10 22:28:00
3:53 PM,96.1,72.0,46,29.78,10.0,Calm,Calm,-,N/A,,Clear,0,2013-07-10 22:53:00
4:53 PM,97.0,71.1,43,29.76,10.0,SSW,3.5,-,N/A,,Clear,200,2013-07-10 23:53:00
5:53 PM,98.1,70.0,40,29.75,10.0,SW,3.5,-,N/A,,Clear,220,2013-07-11 00:53:00
6:53 PM,98.1,70.0,40,29.75,10.0,SE,9.2,-,N/A,,Clear,140,2013-07-11 01:53:00
7:53 PM,93.0,70.0,47,29.75,10.0,SE,12.7,-,N/A,,Clear,130,2013-07-11 02:53:00
8:53 PM,91.0,71.1,52,29.76,6.0,SE,12.7,-,N/A,,Haze,140,2013-07-11 03:53:00
9:53 PM,89.1,71.1,55,29.78,10.0,SSE,12.7,-,N/A,,Clear,150,2013-07-11 04:53:00
10:53 PM,89.1,69.1,52,29.79,10.0,SSE,11.5,-,N/A,,Clear,150,2013-07-11 05:53:00
11:53 PM,88.0,70.0,55,29.79,9.0,SE,9.2,-,N/A,,Clear,140,2013-07-11 06:53:00